Simultaneous Nadir Overpasses (SNOs) Predictions

Prediction of SNOs between LANDSAT-8 and METOP-B Satellite Orbit:

Table of predicted SNOs for the next 14.0 days since TLE Epoch: 11/30/2019
Index Date (LANDSAT-8) Time (LANDSAT-8) Lat,Lon (LANDSAT-8) SZA (LANDSAT-8 ) Date (METOP-B) Time (METOP-B) Lat,Lon (METOP-B) SZA (METOP-B ) Distance(km) Time Diff (sec)
1 11/30/2019 10:49:32 81.08, 56.86 104.87 11/30/2019 10:48:32 81.09, 57.01 104.86 2.71 60
2 11/30/2019 11:38:58 -81.10,-135.21 75.09 11/30/2019 11:39:11 -81.11,-135.05 75.06 2.97 13
3 12/03/2019 06:23:48 81.07, 123.21 105.26 12/03/2019 06:22:57 81.08, 123.18 105.24 0.68 51
4 12/03/2019 07:13:13 -81.12, -68.46 74.64 12/03/2019 07:13:35 -81.11, -68.49 74.64 0.83 22
5 12/06/2019 01:58:03 81.10,-169.99 105.65 12/06/2019 01:57:20 81.10,-169.91 105.64 1.41 43
6 12/06/2019 02:47:29 -81.12, -2.00 74.29 12/06/2019 02:47:59 -81.12, -1.95 74.28 0.97 30
7 12/08/2019 21:32:19 81.08,-103.83 105.90 12/08/2019 21:31:44 81.09,-103.77 105.90 1.33 35
8 12/08/2019 22:21:45 -81.11, 64.19 74.05 12/08/2019 22:22:23 -81.11, 64.21 74.03 0.52 38
9 12/11/2019 17:06:35 81.09, -37.23 106.15 12/11/2019 17:06:08 81.09, -37.27 106.13 0.70 27




NCC Satellite Simultaneous Nadir Overpasses (SNOs) Prediction Service
